Date String (YYYY-MM-DD hh:mm:ss) UTC,Instrument flags,absolute air pressure of the measurement (hPa),sample flow rate (lpm),inlet stack bypass flow (lpm),air temperature of the measurement (°C),ambient temperature measured by the external sensor (°C),aerosol sample conditioner tube jacket temperature (°C),OPC LED temperature (°C),internal box temperature (°C),relative humidity of the measurement (%),span deviation,mass concentration of particles derived from Lorenz-Mie calculation of OPC scattering (μg/m³),mass concentration of particles derived from Lorenz-Mie calculation of OPC scattering (μg/m³),mass concentration of particles derived from Lorenz-Mie calculation of OPC scattering (μg/m³)
DateTimeUTC,F1_M11,P_M11,Q1_M11,Q2_M11,T1_M11,T2_M11,T3_M11,T4_M11,T5_M11,U1_M11,ZSPAN_M11,X0_M11,X2_M11,X1_M11
2024-01-10 16:00:00,SystemResetWarning,0813.3,5.01,000.00,019.1,019.3,000.0,027.3,021.1,9.1,0000.0,0004.31,0000.48,0000.20
2024-01-10 16:01:00,SystemResetWarning,0813.2,4.98,000.00,019.2,019.2,000.0,027.3,020.7,8.9,0000.0,0004.33,0000.48,0000.20
2024-01-10 16:02:00,SystemResetWarning,0813.3,5.01,000.00,019.1,019.0,000.0,027.3,020.5,8.9,0000.0,0004.44,0000.50,0000.21
2024-01-10 16:03:00,SystemResetWarning,0813.2,5.01,000.00,019.1,018.7,000.0,027.3,020.3,8.9,0000.0,0004.27,0000.51,0000.22
2024-01-10 16:04:00,SystemResetWarning,0813.2,4.99,000.00,019.0,018.5,000.0,027.3,020.1,8.9,0000.0,0004.12,0000.51,0000.21
2024-01-10 16:05:00,SystemResetWarning,0813.2,4.99,000.00,018.9,018.3,000.0,027.3,020.0,8.9,0000.0,0004.25,0000.50,0000.20
2024-01-10 16:06:00,SystemResetWarning,0813.2,5.00,000.00,018.9,018.1,000.0,027.3,020.0,9.0,0000.0,0004.32,0000.52,0000.20
2024-01-10 16:07:00,SystemResetWarning,0813.2,5.01,000.00,018.9,017.9,000.0,027.3,020.0,9.0,0000.0,0003.19,0000.49,0000.19
2024-01-10 16:08:00,SystemResetWarning,0813.3,5.01,000.00,018.8,017.7,000.0,027.3,020.0,9.0,0000.0,0003.11,0000.48,0000.19
2024-01-10 16:09:00,SystemResetWarning,0813.2,5.01,000.00,018.8,017.6,000.0,027.3,020.0,9.1,0000.0,0003.01,0000.49,0000.20
2024-01-10 16:10:00,SystemResetWarning,0813.2,4.99,000.00,018.8,017.5,000.0,027.3,020.0,9.1,0000.0,0001.33,0000.47,0000.20
2024-01-10 16:11:00,SystemResetWarning,0813.1,4.99,000.00,018.8,017.3,000.0,027.3,020.0,9.0,0000.0,0001.52,0000.49,0000.20
2024-01-10 16:12:00,SystemResetWarning,0813.2,5.01,000.00,018.8,017.6,000.0,027.3,020.3,9.0,0000.0,0001.52,0000.50,0000.20
2024-01-10 16:13:00,SystemResetWarning,0813.2,5.00,000.00,018.9,018.6,000.0,027.3,020.8,9.0,0000.0,0001.54,0000.52,0000.21
2024-01-10 16:14:00,SystemResetWarning,0813.1,5.00,000.00,019.1,019.4,000.0,027.3,021.0,8.8,0000.0,0001.59,0000.54,0000.20
2024-01-10 16:15:00,SystemResetWarning,0813.1,5.00,000.00,019.1,019.3,000.0,027.3,020.7,8.7,0000.0,0001.50,0000.53,0000.20
2024-01-10 16:16:00,SystemResetWarning,0813.1,4.99,000.00,019.1,019.0,000.0,027.3,020.4,8.6,0000.0,0002.58,0000.51,0000.21
2024-01-10 16:17:00,SystemResetWarning,0813.1,5.00,000.00,019.1,018.8,000.0,027.3,020.3,8.5,0000.0,0003.58,0000.49,0000.20
2024-01-10 16:18:00,SystemResetWarning,0813.0,5.01,000.00,019.0,018.5,000.0,027.3,020.1,8.7,0000.0,0003.61,0000.49,0000.21
2024-01-10 16:19:00,SystemResetWarning,0813.0,5.01,000.00,019.0,018.3,000.0,027.3,020.0,8.7,0000.0,0003.63,0000.50,0000.21
2024-01-10 16:20:00,SystemResetWarning,0813.0,5.00,000.00,018.9,018.1,000.0,027.3,020.0,8.7,0000.0,0003.70,0000.52,0000.21
2024-01-10 16:21:00,SystemResetWarning,0813.0,5.00,000.00,018.9,017.9,000.0,027.3,020.0,8.5,0000.0,0003.71,0000.54,0000.21
2024-01-10 16:22:00,SystemResetWarning,0812.9,4.99,000.00,018.9,017.7,000.0,027.3,020.0,8.3,0000.0,0003.80,0000.56,0000.22
2024-01-10 16:23:00,SystemResetWarning,0812.8,4.99,000.00,018.8,017.6,000.0,027.3,020.0,8.3,0000.0,0003.97,0000.61,0000.23
2024-01-10 16:24:00,SystemResetWarning,0812.7,5.00,000.00,018.8,017.5,000.0,027.3,020.0,8.4,0000.0,0004.08,0000.58,0000.23
2024-01-10 16:25:00,SystemResetWarning,0812.8,5.00,000.00,018.8,017.5,000.0,027.3,020.1,8.4,0000.0,0004.36,0000.60,0000.23
2024-01-10 16:26:00,SystemResetWarning,0812.7,5.02,000.00,018.9,018.3,000.0,027.2,020.6,8.4,0000.0,0004.55,0000.65,0000.25
2024-01-10 16:27:00,SystemResetWarning,0812.6,5.00,000.00,019.0,019.2,000.0,027.3,021.0,8.1,0000.0,0003.70,0000.67,0000.25
2024-01-10 16:28:00,SystemResetWarning,0812.7,5.00,000.00,019.1,019.3,000.0,027.3,020.8,7.9,0000.0,0002.42,0000.70,0000.26
2024-01-10 16:29:00,SystemResetWarning,0812.7,4.99,000.00,019.1,019.0,000.0,027.3,020.6,8.1,0000.0,0002.27,0000.71,0000.26
2024-01-10 16:30:00,SystemResetWarning,0812.6,5.01,000.00,019.0,018.7,000.0,027.3,020.4,8.2,0000.0,0002.88,0000.75,0000.27
2024-01-10 16:31:00,SystemResetWarning,0812.6,5.01,000.00,018.9,018.4,000.0,027.4,020.2,8.1,0000.0,0004.29,0000.81,0000.27
2024-01-10 16:32:00,SystemResetWarning,0812.7,5.01,000.00,018.9,018.2,000.0,027.4,020.0,8.3,0000.0,0004.66,0000.83,0000.28
2024-01-10 16:33:00,SystemResetWarning,0812.8,5.00,000.00,018.8,018.0,000.0,027.4,020.0,8.3,0000.0,0004.64,0000.85,0000.28
2024-01-10 16:34:00,SystemResetWarning,0812.7,4.99,000.00,018.8,017.8,000.0,027.4,020.0,8.3,0000.0,0004.68,0000.85,0000.28
2024-01-10 16:35:00,SystemResetWarning,0812.9,4.99,000.00,018.7,017.6,000.0,027.3,020.0,8.4,0000.0,0004.68,0000.87,0000.28
2024-01-10 16:36:00,SystemResetWarning,0812.8,5.00,000.00,018.7,017.5,000.0,027.3,020.0,8.6,0000.0,0004.36,0000.87,0000.30
2024-01-10 16:37:00,SystemResetWarning,0812.7,5.02,000.00,018.8,018.2,000.0,027.3,020.5,8.6,0000.0,0004.84,0000.88,0000.29
2024-01-10 16:38:00,SystemResetWarning,0812.7,4.99,000.00,019.0,019.2,000.0,027.3,020.9,8.5,0000.0,0005.25,0000.89,0000.30
2024-01-10 16:39:00,SystemResetWarning,0812.7,4.99,000.00,019.1,019.4,000.0,027.3,020.8,8.3,0000.0,0007.61,0000.91,0000.30
2024-01-10 16:40:00,SystemResetWarning,0812.6,5.00,000.00,019.1,019.2,000.0,027.3,020.6,8.0,0000.0,0008.28,0000.98,0000.31
2024-01-10 16:41:00,SystemResetWarning,0812.7,5.00,000.00,019.0,018.8,000.0,027.3,020.4,7.9,0000.0,0008.03,0000.96,0000.31
2024-01-10 16:42:00,SystemResetWarning,0812.7,5.01,000.00,018.9,018.5,000.0,027.3,020.2,8.1,0000.0,0007.88,0000.94,0000.31
2024-01-10 16:43:00,SystemResetWarning,0812.8,5.01,000.00,018.9,018.3,000.0,027.3,020.0,8.3,0000.0,0008.45,0001.04,0000.32
2024-01-10 16:44:00,SystemResetWarning,0812.8,5.00,000.00,018.8,018.1,000.0,027.3,020.0,8.6,0000.0,0008.74,0001.09,0000.33
2024-01-10 16:45:00,SystemResetWarning,0812.6,5.00,000.00,018.8,017.9,000.0,027.3,020.0,8.4,0000.0,0008.85,0001.13,0000.33
2024-01-10 16:46:00,SystemResetWarning,0812.7,4.99,000.00,018.7,017.7,000.0,027.3,020.0,8.2,0000.0,0009.12,0001.12,0000.34
2024-01-10 16:47:00,SystemResetWarning,0812.7,5.00,000.00,018.7,017.6,000.0,027.3,020.0,8.3,0000.0,0009.22,0001.14,0000.34
2024-01-10 16:48:00,SystemResetWarning,0812.7,5.01,000.00,018.7,017.5,000.0,027.3,020.0,8.4,0000.0,0008.87,0001.13,0000.35
2024-01-10 16:49:00,SystemResetWarning,0812.7,5.00,000.00,018.7,017.9,000.0,027.3,020.3,8.4,0000.0,0008.78,0001.17,0000.34
2024-01-10 16:50:00,SystemResetWarning,0812.7,4.99,000.00,018.9,019.0,000.0,027.2,020.8,8.4,0000.0,0007.25,0001.22,0000.35
2024-01-10 16:51:00,SystemResetWarning,0812.6,5.00,000.00,019.0,019.5,000.0,027.3,020.9,8.3,0000.0,0007.19,0001.18,0000.34
2024-01-10 16:52:00,SystemResetWarning,0812.6,5.00,000.00,019.1,019.3,000.0,027.3,020.7,8.3,0000.0,0008.59,0001.21,0000.36
2024-01-10 16:53:00,SystemResetWarning,0812.6,4.99,000.00,019.0,018.9,000.0,027.3,020.5,8.1,0000.0,0008.68,0001.23,0000.37
2024-01-10 16:54:00,SystemResetWarning,0812.6,5.00,000.00,018.9,018.6,000.0,027.3,020.3,8.2,0000.0,0008.15,0001.22,0000.38
2024-01-10 16:55:00,SystemResetWarning,0812.6,5.01,000.00,018.9,018.4,000.0,027.3,020.1,8.0,0000.0,0008.18,0001.23,0000.39
2024-01-10 16:56:00,SystemResetWarning,0812.8,5.00,000.00,018.8,018.1,000.0,027.3,020.0,8.2,0000.0,0008.05,0001.24,0000.40
2024-01-10 16:57:00,SystemResetWarning,0812.7,5.00,000.00,018.8,017.9,000.0,027.3,020.0,8.4,0000.0,0008.42,0001.33,0000.42
2024-01-10 16:58:00,SystemResetWarning,0812.8,5.00,000.00,018.7,017.7,000.0,027.3,020.0,8.3,0000.0,0009.57,0001.39,0000.44
2024-01-10 16:59:00,SystemResetWarning,0813.0,5.01,000.00,018.7,017.6,000.0,027.3,020.0,8.3,0000.0,0010.15,0001.43,0000.47
